Flag for Germany Weather past 2 weeks in Bonn, North Rhine-Westphalia, Germany

Now
50 °F

Overcast.


Feels Like: 45 °F
Forecast: 44 / 54 °F
Wind: 10 mph from Northwest

Location: Bonn-Hangelar

Current Time: Oct 22, 2014 at 4:46:52 PM

Latest Report: Oct 22, 2014 at 4:00 PM


Visibility: 22 mi

Pressure: 30.12 "Hg

Humidity: 80%

Dew point: 44 °F

Location of BonnLocation

Historic Weather in Bonn — Graph

°F

Bonn temperature yesterday

Maximum temperature yesterday: 53 °F (at 3:00 PM)
Minimum temperature yesterday: 45 °F (at 11:00 PM)
Average temperature yesterday: 50 °F

Past Weeks' High & Low Weather Summary

 TemperatureHumidityPressure
High72 °F (Oct 18, 5:00 PM)98% (Oct 12, 10:00 PM)30.13 "Hg (Oct 12, 10:00 PM)
Low40 °F (Oct 22, 4:00 AM)52% (Oct 14, 4:00 PM)29.55 "Hg (Oct 21, 4:00 PM)
Average57 °F81%29.85 "Hg
* Reported Oct 7 3:00 PM — Oct 22 3:00 PM, Bonn, Weather by CustomWeather, © 2014

Note: Actual official high and low records may vary slightly from our data, if they occured in-between our weather recording intervals... More about our weather records

Advertising

Bonn weather history for previous 24 hours

 ConditionsComfort  
Time TempWeatherWind HumidityBarometerVisibility
3:00 PM
Oct 22
48 °FPassing clouds.3 mph87%30.12 "Hg7 mi
2:00 PM48 °FOvercast.8 mph88%30.11 "Hg12 mi
1:00 PM47 °FOvercast.9 mph86%30.13 "Hg16 mi
12:00 PM46 °FOvercast.10 mph87%30.11 "Hg12 mi
11:00 AM44 °FOvercast.9 mph89%30.10 "Hg11 mi
10:00 AM43 °FOvercast.10 mph92%30.09 "Hg9 mi
9:00 AM42 °FLight rain. Low clouds.9 mph94%30.06 "Hg9 mi
8:00 AM42 °FLight rain. Low clouds.7 mph96%30.05 "Hg7 mi
7:00 AM42 °FLight rain. Overcast.9 mph93%30.03 "Hg19 mi
6:00 AM42 °FLight rain. Overcast.10 mph91%30.01 "Hg25 mi
5:00 AM42 °FPassing clouds.6 mph90%29.99 "Hg16 mi
4:00 AM40 °FLow clouds.7 mph97%29.99 "Hg9 mi
3:00 AM43 °FOvercast.10 mph87%29.96 "Hg16 mi
2:00 AM44 °FOvercast.12 mph83%29.93 "Hg14 mi
1:00 AM43 °FRain. Low clouds.7 mph93%29.91 "Hg1 mi
12:00 AM45 °FPassing clouds.12 mph83%29.86 "Hg16 mi
11:00 PM
Oct 21
45 °FPassing clouds.13 mph84%29.83 "Hg19 mi
10:00 PM45 °FPassing clouds.13 mph79%29.79 "Hg28 mi
9:00 PM45 °FPassing clouds.12 mph80%29.76 "Hg25 mi
8:00 PM46 °FOvercast.13 mph80%29.73 "Hg25 mi
7:00 PM46 °FOvercast.14 mph83%29.70 "Hg25 mi
6:00 PM48 °FOvercast.12 mph79%29.64 "Hg22 mi
5:00 PM50 °FOvercast.10 mph85%29.62 "Hg25 mi
4:00 PM53 °FRain showers. Low clouds.12 mph96%29.55 "Hg4 mi
Weather by CustomWeather, © 2014

See weather overviewHow to use our weather pages